Location: Observatorio del Centro Ecologico de Sonora
(29.0667°N, 110.9333°W)
Time: 10:27:24
(UTC-07:00)

ISS - Visible Passes

Search period start: 19 April 2014 00:00
Search period end: 29 April 2014 00:00
Orbit: 414 x 419 km, 51.6° (Epoch: 19 April)

Date Brightness Start Highest point End Pass type
(mag) Time Alt. Az. Time Alt. Az. Time Alt. Az.
21 Apr -0.7 20:51:17 10° NNW 20:52:24 16° N 20:52:24 16° N visible
22 Apr -0.9 20:03:39 10° N 20:05:10 13° NE 20:05:52 12° NE visible
23 Apr -1.7 20:50:10 10° NW 20:52:14 35° NNW 20:52:14 35° NNW visible
24 Apr -2.3 20:01:41 10° NNW 20:04:46 34° NE 20:05:43 28° ENE visible
25 Apr -1.4 20:49:44 10° WNW 20:52:07 26° WSW 20:52:07 26° WSW visible
26 Apr -2.9 20:00:35 10° NW 20:03:53 59° SW 20:05:39 24° SSE visible
28 Apr -0.6 20:00:28 10° W 20:02:31 15° SW 20:04:34 10° SSW visible
